Change the Weather History Date:

Friday, May 10, 2013

  Actual Average (KBLF) Record (KBLF)
Temperature  
Mean Temperature 64 °F 61 °F  
Max Temperature 72 °F 71 °F 83 °F (2007)
Min Temperature 56 °F 52 °F 24 °F (1966)
Degree Days  
Heating Degree Days 1 5  
Month to date heating degree days 59  
Since 1 July heating degree days 4489  
Cooling Degree Days 0 2  
Month to date cooling degree days 11  
Year to date cooling degree days 39  
Growing Degree Days 14 (Base 50)    
Moisture  
Dew Point 55 °F    
Average Humidity 71    
Maximum Humidity 85    
Minimum Humidity 55    
Precipitation  
Precipitation 0.00 in 0.13 in 0.37 in (1990)
Month to date precipitation 1.31  
Year to date precipitation 13.82  
Snow  
Snow 0.00 in - - ()
Month to date snowfall  
Since 1 July snowfall  
Snow Depth -    
Sea Level Pressure  
Sea Level Pressure 30.06 in    
Wind  
Wind Speed 5 mph (SW)    
Max Wind Speed 15 mph    
Max Gust Speed 26 mph    
Visibility 10 miles    
Events Rain , Thunderstorm    
T = Trace of Precipitation, MM = Missing Value Source: NWS Daily Summary

Daily Weather History Graph

Daily Weather History Graph

Search for Another Location

Airport or City:

Trip Planner

Search our weather history database for the weather conditions in past years. The results will help you decide how hot, cold, wet, or windy it might be!

Date:

Astronomy

May. 10, 2013 Rise Set
Actual Time 6:23 AM EDT 8:24 PM EDT
Civil Twilight 5:54 AM EDT 8:53 PM EDT
Nautical Twilight 5:19 AM EDT 9:28 PM EDT
Astronomical Twilight 4:42 AM EDT 10:05 PM EDT
Moon 6:46 AM EDT (5/10) 9:12 PM EDT (5/10)
Length of Visible Light 14h 58m
Length of Day
14h 01m
New Moon, 0% of the Moon is Illuminated
May 10
New Moon
May 18
First Quarter
May 25
Full
May 31
Last Quarter
Jun 8
New

Hourly Weather History & Observations

Time (EDT) Temp. Dew Point Humidity Pressure Visibility Wind Dir Wind Speed Gust Speed Precip Events Conditions
12:15 AM 58.8 °F 52.3 °F 79% 30.13 in 10.0 mi Calm Calm - N/A   Scattered Clouds
12:35 AM 61.0 °F 51.8 °F 72% 30.13 in 10.0 mi SSE 3.5 mph - N/A   Mostly Cloudy
1:15 AM 61.3 °F 51.8 °F 71% 30.13 in 10.0 mi Calm Calm - N/A   Mostly Cloudy
1:35 AM 59.7 °F 51.8 °F 75% 30.13 in 10.0 mi SSE 4.6 mph - N/A   Mostly Cloudy
2:15 AM 57.9 °F 51.8 °F 80% 30.12 in 10.0 mi South 3.5 mph - N/A   Scattered Clouds
2:35 AM 56.3 °F 51.8 °F 85% 30.12 in 10.0 mi SSE 4.6 mph - N/A   Scattered Clouds
2:55 AM 57.6 °F 51.4 °F 80% 30.11 in 10.0 mi SSE 5.8 mph - N/A   Clear
3:15 AM 58.8 °F 51.3 °F 76% 30.10 in 10.0 mi SSE 4.6 mph - N/A   Clear
3:35 AM 59.4 °F 51.1 °F 74% 30.09 in 10.0 mi SSE 4.6 mph - N/A   Clear
3:55 AM 59.4 °F 51.1 °F 74% 30.09 in 10.0 mi South 3.5 mph - N/A   Clear
4:15 AM 59.0 °F 51.3 °F 75% 30.10 in 10.0 mi South 3.5 mph - N/A   Clear
4:55 AM 59.5 °F 51.6 °F 75% 30.09 in 10.0 mi South 3.5 mph - N/A   Clear
5:15 AM 59.9 °F 51.8 °F 75% 30.10 in 10.0 mi South 3.5 mph - N/A   Clear
5:55 AM 59.2 °F 51.4 °F 75% 30.09 in 10.0 mi South 3.5 mph - N/A   Clear
6:15 AM 59.2 °F 51.4 °F 75% 30.08 in 10.0 mi SSE 4.6 mph - N/A   Clear
6:35 AM 58.8 °F 51.6 °F 77% 30.08 in 10.0 mi SSE 5.8 mph - N/A   Clear
6:55 AM 59.9 °F 51.6 °F 74% 30.09 in 10.0 mi SSE 4.6 mph - N/A   Clear
7:15 AM 61.0 °F 52.0 °F 72% 30.10 in 10.0 mi Calm Calm - N/A   Clear
7:35 AM 60.4 °F 52.3 °F 75% 30.09 in 10.0 mi Calm Calm - N/A   Clear
7:55 AM 61.5 °F 53.1 °F 74% 30.10 in 10.0 mi SE 3.5 mph - N/A   Clear
8:15 AM 62.6 °F 53.6 °F 72% 30.09 in 10.0 mi Calm Calm - N/A   Clear
8:35 AM 64.2 °F 54.1 °F 70% 30.09 in 10.0 mi Calm Calm - N/A   Clear
8:55 AM 64.8 °F 54.0 °F 68% 30.08 in 10.0 mi Calm Calm - N/A   Clear
9:15 AM 65.5 °F 54.9 °F 68% 30.09 in 10.0 mi Calm Calm - N/A   Clear
9:35 AM 66.2 °F 55.2 °F 68% 30.09 in 10.0 mi WSW 3.5 mph - N/A   Clear
9:55 AM 65.7 °F 56.7 °F 73% 30.09 in 10.0 mi WSW 4.6 mph - N/A   Clear
10:15 AM 66.0 °F 56.3 °F 71% 30.08 in 10.0 mi West 3.5 mph - N/A   Clear
10:35 AM 68.0 °F 56.1 °F 66% 30.08 in 10.0 mi SW 6.9 mph - N/A   Clear
10:55 AM 68.2 °F 55.2 °F 63% 30.08 in 10.0 mi SSW 6.9 mph - N/A   Clear
11:15 AM 68.7 °F 55.9 °F 64% 30.08 in 10.0 mi South 5.8 mph - N/A   Scattered Clouds
11:35 AM 69.1 °F 55.2 °F 61% 30.08 in 10.0 mi SW 5.8 mph - N/A   Scattered Clouds
11:55 AM 69.6 °F 55.4 °F 61% 30.09 in 10.0 mi SSW 6.9 mph - N/A   Scattered Clouds
12:15 PM 71.1 °F 55.0 °F 57% 30.09 in 10.0 mi SSW 11.5 mph 16.1 mph N/A   Scattered Clouds
12:35 PM 70.3 °F 55.4 °F 59% 30.08 in 10.0 mi SW 11.5 mph - N/A   Scattered Clouds
12:55 PM 71.8 °F 56.7 °F 59% 30.08 in 10.0 mi WSW 13.8 mph - N/A   Scattered Clouds
1:15 PM 71.6 °F 55.0 °F 56% 30.07 in 10.0 mi SW 13.8 mph 18.4 mph N/A   Scattered Clouds
1:35 PM 72.0 °F 56.1 °F 57% 30.06 in 10.0 mi West 11.5 mph 18.4 mph N/A   Clear
1:55 PM 71.8 °F 55.8 °F 57% 30.06 in 10.0 mi WSW 8.1 mph - N/A   Clear
2:15 PM 71.6 °F 54.5 °F 55% 30.05 in 10.0 mi WSW 10.4 mph 18.4 mph N/A   Clear
2:35 PM 71.1 °F 55.9 °F 59% 30.05 in 10.0 mi West 15.0 mph 19.6 mph N/A   Scattered Clouds
2:55 PM 71.6 °F 56.1 °F 58% 30.04 in 10.0 mi West 9.2 mph 16.1 mph N/A   Scattered Clouds
3:15 PM 71.4 °F 55.0 °F 56% 30.04 in 10.0 mi SW 11.5 mph 17.3 mph N/A   Scattered Clouds
3:35 PM 70.7 °F 55.2 °F 58% 30.03 in 10.0 mi West 8.1 mph - N/A   Scattered Clouds
3:55 PM 70.0 °F 54.7 °F 58% 30.02 in 10.0 mi WSW 10.4 mph - N/A   Clear
4:15 PM 70.0 °F 55.9 °F 61% 30.02 in 10.0 mi WSW 8.1 mph - N/A   Clear
4:35 PM 68.7 °F 56.3 °F 64% 30.02 in 10.0 mi WSW 13.8 mph 26.5 mph N/A   Scattered Clouds
4:55 PM 67.6 °F 55.9 °F 66% 30.02 in 10.0 mi West 11.5 mph 19.6 mph N/A   Mostly Cloudy
5:15 PM 65.8 °F 57.0 °F 73% 30.01 in 10.0 mi West 6.9 mph - N/A Rain Light Rain
5:35 PM 65.7 °F 57.2 °F 74% 30.02 in 10.0 mi WSW 8.1 mph - N/A   Overcast
5:55 PM 66.0 °F 57.2 °F 73% 30.02 in 10.0 mi SW 8.1 mph - N/A   Overcast
6:15 PM 65.3 °F 55.9 °F 72% 30.02 in 10.0 mi SSW 9.2 mph 19.6 mph N/A   Light Drizzle
6:35 PM 64.8 °F 56.1 °F 74% 30.02 in 10.0 mi SW 12.7 mph 17.3 mph N/A Thunderstorm Overcast
6:55 PM 64.4 °F 56.3 °F 75% 30.01 in 10.0 mi SSW 8.1 mph - N/A   Light Drizzle
7:15 PM 64.0 °F 55.4 °F 73% 30.00 in 10.0 mi SW 9.2 mph - N/A   Mostly Cloudy
7:35 PM 64.0 °F 54.9 °F 72% 29.99 in 10.0 mi SW 9.2 mph - N/A   Mostly Cloudy
7:55 PM 63.9 °F 54.7 °F 72% 29.99 in 10.0 mi WSW 4.6 mph - N/A   Scattered Clouds
8:15 PM 63.9 °F 54.7 °F 72% 29.99 in 10.0 mi SSW 5.8 mph - N/A   Clear
8:35 PM 63.1 °F 55.6 °F 76% 30.00 in 10.0 mi SW 8.1 mph - N/A   Scattered Clouds
8:55 PM 63.1 °F 56.3 °F 78% 30.00 in 10.0 mi SW 6.9 mph - N/A   Mostly Cloudy
9:15 PM 63.0 °F 56.5 °F 79% 30.00 in 10.0 mi SW 8.1 mph - N/A   Overcast
9:35 PM 62.6 °F 56.7 °F 81% 30.01 in 10.0 mi SSW 5.8 mph - N/A   Overcast
9:55 PM 62.4 °F 57.0 °F 82% 30.01 in 10.0 mi SSW 3.5 mph - N/A   Overcast
10:15 PM 61.9 °F 57.2 °F 85% 30.00 in 10.0 mi SW 3.5 mph - N/A   Overcast
10:35 PM 62.4 °F 57.0 °F 82% 30.01 in 10.0 mi SW 3.5 mph - N/A   Overcast
10:55 PM 62.4 °F 56.8 °F 82% 30.01 in 10.0 mi WSW 5.8 mph - N/A   Overcast
11:15 PM 62.1 °F 56.7 °F 82% 30.00 in 10.0 mi SW 8.1 mph - N/A   Overcast
11:35 PM 61.7 °F 56.5 °F 83% 30.00 in 10.0 mi SW 5.8 mph - N/A   Overcast
11:55 PM 61.9 °F 56.3 °F 82% 30.01 in 10.0 mi WSW 10.4 mph 19.6 mph N/A   Overcast